Theta_e
333 330 337 338 337 339 328 324 305 313 309 302 302 302 302 312 312 309 309 313 310 317 320 323 322 323 320 319 321 320 323 321 324 317 316 328 332 330 338 349 355 353 351 352 355 355 355 357 357 358 357 357 357 357 358 358 358 358 358 358 357 357 356 356 355 354 354 354 354 354 354 355 354 354 353 352 352 353 352 352 352 352 352 351 352 353 354 354 353 353 354 354 354 353 353 353 352
325 328 333 338 337 333 320 324 311 307 305 302 303 305 305 309 310 309 308 312 314 317 323 324 323 323 325 323 323 323 321 328 333 331 332 330 328 333 343 355 355 351 351 353 354 353 353 355 357 357 357 357 357 357 357 358 358 358 358 358 357 357 356 355 355 354 354 354 354 354 354 354 354 353 352 352 353 352 352 351 352 352 351 351 353 353 353 353 353 353 354 354 355 354 354 353 353
322 326 326 330 331 327 321 318 302 301 297 295 300 304 310 307 306 310 314 315 316 318 321 323 324 322 322 323 324 322 320 331 332 332 326 327 324 334 344 354 354 352 352 352 352 352 353 355 356 357 357 357 356 356 356 357 357 357 357 356 356 356 355 355 354 354 354 354 354 353 354 354 354 353 352 352 351 351 352 351 351 351 351 352 352 353 353 353 354 353 352 352 353 353 353 353 352
324 324 324 328 318 321 313 309 304 301 298 298 299 305 306 307 308 313 314 315 317 318 318 318 318 327 321 320 319 323 322 330 331 327 322 325 330 338 345 353 355 354 352 350 351 352 353 355 356 356 357 356 356 356 356 357 356 356 356 356 356 355 355 354 354 354 354 354 354 354 353 354 353 352 351 351 350 351 353 352 350 351 352 352 352 353 353 353 353 352 351 352 352 353 353 353 351
317 321 324 320 317 309 309 306 304 303 297 300 298 305 307 308 308 314 315 317 318 317 317 318 319 324 327 322 324 319 320 328 335 331 328 332 336 339 348 352 353 352 349 349 351 353 353 356 355 356 356 356 356 355 356 356 355 355 355 355 355 354 354 354 353 354 354 354 354 354 353 353 353 351 350 350 349 350 353 352 351 350 351 351 351 352 352 352 351 350 351 352 353 353 353 353 352
319 318 321 318 309 316 310 302 301 301 304 306 302 304 308 309 309 311 314 316 318 318 320 320 320 317 322 324 328 322 327 323 333 332 332 330 336 343 350 352 352 350 348 349 351 354 353 356 356 356 356 356 355 355 355 355 355 355 355 354 354 354 353 353 353 354 354 354 354 353 353 353 353 351 350 350 349 349 352 352 351 352 350 350 350 351 351 351 350 350 351 351 352 353 352 352 352
316 315 314 314 312 312 301 300 300 301 304 308 305 307 309 310 311 312 312 313 316 317 319 321 324 321 319 324 326 331 333 330 330 331 334 334 337 346 348 350 351 348 347 350 352 354 353 355 355 355 355 355 355 355 355 355 354 354 354 353 353 353 353 353 352 353 353 354 353 353 353 353 353 351 350 349 349 349 350 351 349 350 352 351 350 351 351 351 350 350 350 351 352 352 352 352 352
320 311 311 306 304 306 299 299 300 303 304 308 309 308 310 310 313 311 311 310 311 311 317 321 325 319 320 325 322 330 334 335 332 337 337 336 340 344 346 349 348 346 347 350 354 355 357 355 355 355 355 355 355 355 354 354 354 353 353 353 353 353 353 352 352 353 354 353 353 353 352 353 353 350 349 349 349 349 348 349 349 350 350 352 351 349 349 350 349 350 350 351 352 352 352 351 351
315 312 313 307 301 304 300 299 300 305 305 308 309 312 317 312 313 311 310 312 313 315 316 322 321 317 318 322 323 331 333 337 338 345 339 335 341 343 345 348 347 346 347 350 356 355 354 355 355 354 354 354 354 354 354 354 353 353 353 353 352 353 353 352 352 353 353 354 354 354 352 353 352 351 349 349 348 348 348 348 350 350 351 351 349 349 350 349 348 349 349 351 351 352 351 351 350
311 310 304 304 304 298 299 300 299 302 304 307 308 309 311 313 312 312 310 310 312 313 315 318 319 320 321 321 324 330 332 337 339 338 339 338 343 345 346 350 348 348 349 355 354 353 354 356 355 354 354 354 354 354 354 353 352 353 352 352 352 353 353 353 352 353 353 353 353 353 353 352 352 351 349 349 348 348 348 348 348 348 349 349 349 349 350 349 348 348 349 350 350 351 350 350 349
305 310 310 302 298 297 297 299 301 303 305 308 308 310 311 312 312 312 312 311 313 312 314 317 314 316 318 319 326 335 337 340 339 336 338 340 344 348 349 350 350 351 354 355 354 353 353 354 356 355 354 354 354 353 353 353 352 352 352 352 351 351 351 351 352 352 352 352 352 353 352 352 352 350 349 348 348 348 348 348 348 349 348 349 349 348 348 348 347 346 347 349 350 350 350 349 349
303 304 305 297 297 297 298 299 301 303 306 307 306 310 312 311 312 311 311 310 311 312 314 315 312 319 319 320 328 336 337 339 340 339 342 345 341 345 350 350 350 351 356 355 354 352 351 353 354 355 354 354 354 354 353 352 352 351 351 351 350 350 350 350 350 350 350 350 352 352 352 352 352 351 349 349 349 347 347 348 348 349 348 348 347 348 347 346 347 346 347 348 349 349 349 349 348
304 305 302 299 298 299 300 300 300 303 304 305 306 311 313 311 310 311 311 311 311 311 312 316 316 316 312 325 333 336 336 342 340 342 344 343 342 346 349 349 351 352 352 352 351 350 351 351 352 352 353 354 354 354 353 352 351 351 351 350 350 349 349 349 349 349 349 350 350 351 351 351 352 351 349 348 347 347 347 346 347 348 347 347 347 347 347 346 346 346 346 348 349 349 349 349 348
305 305 303 298 303 300 299 299 301 300 301 306 310 312 313 311 312 313 312 309 310 310 315 318 317 319 324 330 331 332 336 339 340 343 346 347 345 346 349 349 351 351 351 350 349 349 349 350 350 351 351 351 353 353 352 351 351 350 351 349 349 349 349 349 350 349 350 350 350 350 350 351 352 351 349 348 347 347 348 347 348 347 347 347 347 348 347 346 345 346 347 348 348 348 349 349 348
305 308 303 300 299 300 302 298 299 300 300 307 309 310 311 313 312 313 312 310 311 316 317 319 317 315 320 326 327 333 338 339 345 350 351 345 344 347 347 349 349 347 349 349 349 348 348 348 349 350 351 348 352 351 350 350 351 350 350 349 349 350 350 350 350 350 350 349 349 349 350 350 352 350 349 348 347 347 347 348 347 347 346 346 346 347 347 345 345 345 344 346 348 348 348 349 348
308 306 303 298 297 298 300 301 302 301 301 307 310 312 310 311 313 311 313 314 314 317 317 312 318 313 325 327 333 338 340 343 345 347 347 346 344 344 345 345 344 343 347 348 348 348 348 348 348 349 349 349 350 350 349 349 349 350 349 349 349 350 349 351 351 350 350 350 349 349 349 350 349 348 349 347 347 347 348 347 347 346 345 345 345 347 347 345 345 344 345 345 347 349 348 348 348
309 306 298 298 295 298 300 300 302 298 304 307 311 311 308 309 313 313 316 316 312 313 315 316 315 319 316 334 337 342 343 347 347 345 342 345 342 341 343 343 342 343 346 346 346 346 345 346 346 350 349 348 350 350 349 347 347 350 349 349 349 349 348 349 350 350 350 350 349 349 348 346 348 347 347 346 348 347 348 347 347 346 345 344 344 347 347 346 345 344 343 345 345 347 349 348 348
305 299 298 296 298 298 302 302 303 307 305 308 309 310 309 307 312 313 315 314 313 313 313 315 317 316 331 333 339 344 345 345 346 344 340 338 341 339 339 340 339 340 344 344 344 344 344 345 347 348 347 348 349 350 349 347 348 347 347 347 347 347 347 347 347 348 350 348 349 347 347 346 344 345 346 349 346 348 347 348 347 346 345 344 345 346 347 346 345 344 344 342 344 347 349 345 346
300 299 298 295 299 301 306 306 307 306 305 307 309 310 310 309 311 313 309 310 311 310 312 314 313 319 333 339 339 340 342 345 345 343 341 338 339 339 340 340 338 341 342 344 343 344 346 345 349 347 348 348 349 350 348 347 346 346 345 346 346 346 345 346 345 346 346 345 346 345 347 346 344 344 346 347 346 348 348 348 347 346 344 344 343 344 346 346 345 346 344 344 343 346 345 345 340
301 298 295 297 303 304 306 307 307 308 308 307 308 309 309 310 311 313 308 309 311 309 309 311 311 314 329 338 342 343 344 343 344 345 343 341 340 342 341 341 340 341 343 344 343 345 347 346 347 348 348 347 349 349 347 346 345 345 346 345 344 345 345 343 343 342 341 343 343 345 345 344 344 345 345 349 345 346 347 348 347 345 345 344 343 343 344 345 345 346 347 345 342 337 338 338 338
301 298 295 298 303 301 304 307 308 308 309 308 308 309 308 310 311 311 309 307 309 310 312 312 311 318 328 332 336 339 343 342 343 344 339 335 331 337 345 343 342 341 345 347 345 346 347 347 348 348 349 348 349 349 346 345 344 345 345 344 344 345 344 344 343 342 343 342 341 342 342 345 344 344 344 343 342 344 345 345 344 343 342 341 342 341 342 340 343 339 339 342 336 334 333 337 340
301 298 300 301 302 300 304 306 309 308 309 308 308 306 306 311 311 309 309 305 306 310 313 314 314 314 328 331 334 337 339 341 344 344 343 339 334 336 338 344 348 344 345 345 345 346 348 347 348 348 349 347 347 349 346 345 345 344 344 344 344 344 345 344 343 343 343 342 340 339 342 342 345 342 343 342 341 342 343 343 343 342 340 339 341 341 341 339 337 337 334 333 334 334 332 333 335
296 300 300 301 302 300 304 305 306 308 307 306 306 308 310 308 307 309 309 308 310 315 315 315 315 316 331 336 336 338 340 342 344 342 342 341 342 344 346 345 345 342 344 346 348 347 348 348 349 347 349 347 348 350 348 346 345 345 345 344 344 345 344 344 344 345 344 343 341 343 344 339 342 342 342 342 340 341 341 341 342 341 340 338 340 339 340 339 335 336 334 332 332 332 332 332 333
300 297 301 301 302 301 304 303 305 305 305 305 308 310 307 306 304 309 308 310 313 315 316 315 317 320 326 329 340 340 341 343 344 344 341 343 344 346 348 346 347 345 343 348 347 348 348 348 350 347 347 347 348 350 349 344 345 346 346 346 345 346 344 344 346 346 347 344 346 349 345 341 342 341 341 340 341 340 340 340 340 339 340 338 339 336 338 337 334 333 335 331 329 328 331 333 332
297 298 300 301 302 303 303 303 303 304 304 305 306 304 304 306 307 308 307 310 313 314 315 315 316 322 320 326 328 342 342 345 345 347 346 343 345 349 353 349 349 346 342 347 347 349 349 348 351 346 346 348 348 351 349 345 346 346 346 346 345 348 345 345 348 349 348 346 349 345 344 342 341 342 339 339 341 338 340 339 339 338 338 338 337 332 337 337 334 331 334 331 329 333 339 334 337
299 299 300 301 302 303 304 305 305 304 304 306 303 302 305 306 308 306 308 310 313 314 314 314 316 319 321 319 327 336 344 345 346 348 343 344 347 348 348 349 349 346 345 348 347 349 349 348 350 346 346 349 348 349 350 347 344 345 346 346 349 346 347 348 352 350 349 349 348 344 345 341 340 341 339 339 339 339 340 339 339 338 338 339 335 331 337 340 333 330 337 334 332 334 334 335 335
301 300 300 300 301 301 302 302 303 304 304 304 302 302 303 306 305 300 308 311 312 312 313 314 315 317 325 320 329 334 343 345 344 344 346 347 347 347 348 350 348 347 349 348 346 348 351 347 348 347 346 349 347 347 350 349 345 346 346 347 349 346 347 351 351 350 349 349 349 348 345 346 344 344 339 340 341 341 344 340 340 342 339 340 337 332 340 341 337 336 339 334 333 338 340 335 335
300 300 299 298 299 300 300 301 301 302 301 304 303 302 303 304 304 302 308 311 312 311 310 312 314 314 324 326 328 334 342 344 343 346 347 346 346 347 348 349 348 349 348 348 348 349 350 349 348 348 347 349 347 347 350 350 346 347 347 347 347 346 352 350 349 349 348 348 349 350 346 346 348 350 344 342 346 345 345 347 344 347 346 344 343 338 340 341 339 337 339 336 347 339 341 336 338
299 299 294 296 298 296 299 298 300 302 300 303 304 300 298 300 299 305 308 309 312 311 311 313 317 320 320 327 331 336 337 343 342 342 348 349 349 351 349 352 349 348 349 349 350 350 349 349 348 348 348 351 348 347 347 350 349 349 348 348 348 348 351 349 348 349 349 349 349 350 347 346 346 352 346 343 345 342 345 345 343 346 343 344 344 340 342 338 338 341 335 343 340 342 338 339 337
300 299 296 294 294 293 297 299 299 298 300 302 302 290 293 297 301 304 307 308 310 308 308 310 313 313 319 333 334 335 338 344 346 346 347 349 351 352 351 353 352 350 348 349 351 349 349 349 349 349 350 350 348 348 348 349 350 349 349 350 350 349 348 347 349 351 349 350 349 350 347 345 345 351 346 345 345 341 344 345 344 344 342 346 346 346 346 343 341 341 341 341 342 339 340 337 337
294 297 297 292 290 290 298 298 299 296 300 300 300 289 292 297 301 304 306 308 309 307 308 309 311 312 312 325 332 331 336 339 342 346 352 351 351 353 352 353 351 350 348 349 349 349 349 350 350 349 349 349 348 348 348 348 351 350 348 349 349 350 347 347 349 351 349 349 349 348 348 345 344 346 346 347 346 342 342 340 340 343 345 342 349 344 347 345 344 341 341 340 341 341 337 337 335
295 291 288 292 289 291 296 299 299 295 298 300 297 290 291 296 299 303 305 307 308 305 306 307 309 310 312 313 325 327 329 335 340 345 352 353 351 344 344 353 352 351 349 348 351 349 348 350 350 350 349 348 349 350 348 350 350 351 348 349 350 350 347 347 349 349 348 349 348 347 347 346 345 344 344 345 347 342 340 337 341 340 343 345 345 346 346 339 344 342 343 344 337 335 335 336 338
294 291 289 289 291 291 293 298 299 299 299 299 296 290 293 295 299 302 306 307 306 304 305 306 308 311 313 313 315 326 328 329 334 339 345 349 352 343 340 346 352 351 350 349 351 349 348 349 350 350 349 349 349 349 349 351 349 350 349 348 350 350 347 347 348 349 349 348 348 346 346 346 343 344 344 344 345 342 338 337 338 341 344 345 346 345 344 343 341 342 341 342 339 337 333 332 336
290 293 290 292 290 292 290 296 299 300 298 295 298 293 294 297 300 302 306 306 305 303 303 305 307 307 309 311 312 313 320 325 330 337 341 347 348 352 353 352 352 352 352 351 351 349 348 349 349 350 350 350 349 348 348 349 348 349 348 347 349 347 348 347 347 347 347 347 347 345 345 346 342 343 344 343 342 344 337 337 336 346 342 345 345 342 343 344 341 343 341 342 342 337 337 334 334
288 290 289 290 292 292 291 291 296 298 299 296 296 295 295 297 299 300 302 306 303 303 304 305 305 306 307 310 311 312 312 323 327 333 340 343 343 352 352 350 351 351 351 351 351 350 348 349 349 350 349 349 349 348 348 349 348 349 348 347 348 347 347 348 346 345 346 347 347 345 344 345 342 343 343 342 343 342 337 337 343 342 341 347 343 340 342 341 342 345 341 344 347 344 339 335 334
290 291 290 290 288 289 290 294 298 297 294 292 294 293 294 297 298 300 301 302 302 303 304 306 306 306 308 309 310 311 312 314 321 334 343 342 342 345 346 348 349 348 350 351 350 349 348 348 349 349 348 348 349 348 347 346 345 344 342 343 344 344 346 346 346 344 345 346 347 345 343 345 342 344 342 342 344 344 339 341 343 342 341 344 342 337 341 340 341 342 344 342 343 339 339 335 333
293 292 291 289 289 290 293 294 296 297 293 292 293 294 296 297 298 300 301 302 301 302 303 304 307 307 307 308 309 311 313 314 319 328 341 344 344 344 343 344 345 346 350 346 347 347 348 346 347 346 347 347 347 345 344 343 342 342 342 340 340 343 343 344 344 344 344 344 345 345 343 343 341 344 342 342 344 347 345 345 343 340 344 342 342 340 345 344 347 343 341 342 339 338 336 336 331
293 291 290 288 290 288 292 292 295 297 293 291 294 293 294 297 299 299 301 301 299 300 301 303 304 305 307 308 308 309 312 317 321 324 341 346 346 342 343 345 344 342 345 347 345 346 347 347 346 346 347 347 347 345 343 343 343 342 340 339 340 341 342 341 340 343 344 346 345 344 343 341 341 343 344 341 344 347 347 345 343 340 343 341 343 345 344 344 341 339 340 337 338 338 333 334 329
292 290 290 288 289 292 293 294 295 295 293 290 293 291 293 296 297 299 300 300 301 302 302 303 304 304 306 307 308 310 312 316 317 324 330 340 345 345 344 345 345 344 344 345 345 344 346 346 347 346 347 347 346 345 344 343 344 345 344 342 341 341 344 344 342 343 346 346 345 346 344 342 341 342 345 342 344 347 346 345 344 343 344 343 342 341 341 340 341 338 338 335 333 336 335 336 330
290 290 288 286 290 288 285 292 294 295 293 291 292 291 293 295 297 298 300 300 301 302 303 303 304 304 304 306 308 310 312 313 316 321 322 327 341 342 343 343 344 345 344 345 345 345 346 344 345 346 347 347 346 345 344 345 345 347 348 347 345 342 341 345 346 345 345 346 345 346 343 344 341 342 343 342 345 346 347 347 346 346 345 345 343 337 338 338 339 340 338 337 335 329 330 329 331
292 291 290 288 289 289 289 289 293 294 294 294 292 290 290 293 293 295 298 300 301 302 302 302 304 306 308 309 311 314 314 314 316 321 321 322 340 339 341 342 344 343 343 344 344 344 346 344 344 346 346 346 346 345 345 345 345 345 346 347 346 343 343 341 341 340 341 344 344 344 343 344 343 343 343 343 344 346 348 347 346 346 346 346 340 336 336 336 337 339 339 337 333 331 329 329 330
290 292 292 292 292 290 291 291 291 288 288 292 291 284 285 291 292 293 296 297 297 299 299 300 302 305 306 309 311 313 315 316 317 319 323 321 339 340 342 342 343 343 343 344 344 345 347 345 344 345 346 346 345 346 346 345 343 343 342 340 337 338 335 336 336 336 338 340 341 345 344 343 343 343 342 344 344 347 346 346 346 346 346 346 340 336 334 337 337 339 340 339 334 336 332 328 327
288 289 294 293 292 292 291 291 289 283 282 289 293 283 281 291 290 293 294 295 295 298 299 299 300 302 305 307 310 311 314 314 314 315 319 326 340 341 343 343 343 343 344 345 345 346 347 346 345 345 345 344 346 347 347 345 344 344 343 341 339 338 336 337 340 341 341 343 345 344 343 343 343 343 343 343 346 348 348 347 347 347 346 348 345 340 336 334 337 337 338 339 337 337 334 328 327
287 294 295 294 292 291 291 290 289 287 291 291 291 289 283 283 289 293 296 294 294 295 297 299 300 301 304 307 310 310 310 312 312 314 316 327 336 340 340 343 343 343 345 345 345 346 346 346 346 345 345 345 346 347 346 345 344 344 343 342 340 339 338 338 341 342 343 344 345 345 344 343 343 343 344 343 346 348 347 346 348 347 345 346 345 344 339 336 336 337 336 339 338 337 334 329 329
291 295 296 293 293 292 291 289 288 288 287 283 287 290 284 283 289 294 295 292 293 294 296 298 299 301 303 305 307 309 310 310 311 313 316 328 339 342 342 343 345 345 345 344 345 345 346 347 346 347 346 346 347 347 345 346 345 345 344 342 339 340 341 340 341 343 342 343 344 344 344 342 343 343 344 344 345 347 347 347 347 346 345 344 343 345 343 339 336 334 335 336 336 336 336 334 332
295 297 297 295 295 293 292 290 288 288 284 280 284 288 282 282 288 289 292 291 292 294 295 297 299 300 301 303 307 308 308 310 309 312 315 317 336 342 343 345 344 344 345 346 345 346 346 347 346 345 346 346 347 346 346 345 345 345 344 342 340 339 341 341 341 341 341 342 344 343 344 342 341 343 343 344 344 346 347 348 346 345 345 345 343 343 344 343 339 335 335 335 337 336 338 336 334
298 296 293 293 292 291 292 291 289 286 280 282 286 288 285 279 286 289 289 290 292 295 297 298 299 301 302 303 304 306 307 308 308 310 315 317 321 344 345 345 344 344 344 345 345 345 346 346 345 343 345 346 346 345 345 344 345 345 344 342 341 339 341 341 339 340 341 341 342 343 343 343 342 343 344 344 345 345 347 347 345 346 345 344 343 343 342 341 341 340 337 338 338 338 338 337 336
296 293 291 290 289 291 289 288 289 280 278 284 288 287 287 278 283 289 293 296 296 295 296 297 298 299 301 303 303 305 307 307 308 309 311 316 319 334 341 343 343 343 343 343 343 344 345 346 345 343 343 344 345 345 344 344 344 345 344 342 341 341 341 341 339 339 340 340 341 342 342 343 342 343 344 344 344 345 345 345 346 345 345 345 343 344 343 342 342 343 343 341 339 338 338 337 336
294 292 290 284 281 282 279 283 278 278 278 285 289 289 284 282 287 290 293 295 297 298 297 298 300 300 301 302 304 304 306 306 307 309 311 313 317 320 339 342 344 342 341 342 343 344 345 345 345 343 341 345 345 345 344 344 344 343 342 342 342 342 342 342 340 341 341 340 341 342 342 341 342 342 342 343 344 345 346 345 345 344 344 344 344 343 345 343 343 343 342 340 340 337 335 335 334
292 289 287 283 278 277 274 278 281 281 285 289 288 290 283 287 289 293 293 295 297 299 300 300 300 302 302 302 303 304 306 307 307 310 311 312 314 319 333 337 336 341 342 342 343 343 344 344 344 343 343 346 345 346 344 343 343 343 343 342 342 343 342 343 341 341 342 342 342 343 342 342 342 342 342 343 345 346 346 347 345 344 344 345 345 344 344 344 343 343 341 340 339 339 337 336 335
292 293 289 285 283 279 274 278 276 277 280 286 290 284 281 282 286 294 295 297 297 299 299 301 302 302 305 305 304 305 306 308 310 310 312 312 314 316 322 334 332 340 342 342 342 343 343 343 343 342 343 345 346 345 344 343 343 344 344 343 343 343 343 343 342 344 343 343 343 343 343 344 343 343 344 345 346 346 346 346 345 345 345 345 344 344 344 344 344 342 341 340 341 340 339 338 337
293 294 293 287 284 289 278 282 281 281 280 280 284 283 288 287 294 296 297 297 297 298 299 300 300 302 303 304 305 307 306 308 310 311 312 314 315 316 319 341 342 342 342 342 341 342 341 342 343 342 343 344 345 344 343 343 343 344 344 344 345 345 343 344 343 344 344 344 343 344 343 344 345 345 346 346 346 346 346 346 345 345 346 345 344 344 343 343 343 342 340 340 338 340 337 334 335
290 290 285 288 294 289 283 284 287 285 282 278 287 285 288 293 294 295 295 295 295 296 297 298 298 300 303 304 305 306 308 307 310 312 313 315 316 318 318 325 339 340 342 342 342 342 342 342 343 342 342 344 344 343 343 343 343 343 344 345 346 345 344 343 343 344 345 345 344 345 345 345 346 346 346 346 346 346 346 345 345 345 345 345 344 343 343 343 343 341 339 337 337 338 337 335 335
293 285 288 295 295 293 285 277 281 280 276 279 285 282 283 284 281 293 293 293 294 295 296 297 299 300 300 304 307 306 309 309 310 312 316 318 319 319 321 321 339 339 341 341 343 343 343 343 343 343 342 342 344 344 343 342 343 343 343 345 346 346 344 344 345 345 345 345 344 344 345 345 345 346 346 346 345 345 345 345 344 344 345 344 343 342 342 342 342 340 340 339 339 338 337 337 337
293 290 299 287 281 280 286 282 274 274 274 277 282 284 284 285 285 290 290 291 293 294 296 296 297 298 299 302 304 305 306 314 310 311 313 314 315 315 318 322 337 338 339 342 343 343 343 344 344 344 342 343 344 344 344 343 343 343 344 345 345 345 345 344 345 346 346 344 344 344 344 345 346 346 345 344 344 344 344 343 344 343 343 343 343 341 341 341 341 339 338 338 338 337 336 335 335
298 297 292 295 289 284 281 283 283 281 276 276 278 282 280 288 288 291 290 292 293 294 294 295 297 299 300 300 302 303 304 310 314 312 312 313 314 315 316 318 336 340 339 342 342 342 342 343 344 344 343 344 344 343 343 343 344 344 344 345 346 345 346 344 345 345 345 343 344 344 344 345 345 345 345 344 343 343 343 342 343 342 342 341 341 341 340 339 338 338 337 336 336 335 334 333 333
289 289 287 289 288 292 289 287 284 280 277 278 277 276 282 289 293 292 292 294 295 295 295 296 297 299 300 302 303 303 304 307 311 312 314 313 315 320 320 320 325 341 342 343 342 341 342 342 343 343 342 343 343 344 344 344 344 344 344 344 345 345 345 345 345 345 344 344 344 343 343 345 346 345 345 344 343 343 342 342 342 341 341 340 340 339 339 338 337 337 337 335 335 334 332 331 331
290 288 287 289 285 283 279 278 288 285 281 277 276 275 283 291 296 294 294 295 295 296 296 297 297 299 300 301 305 304 305 307 311 310 312 317 319 317 317 317 319 331 336 338 340 340 341 343 342 342 342 342 342 343 344 344 345 345 345 345 346 346 345 345 345 345 344 344 343 343 344 345 344 345 345 343 343 342 341 342 341 340 340 340 339 339 338 337 336 335 335 336 334 332 330 330 329
Wind_Speed
10 6 5 5 5 6 6 5 5 5 5 10 11 12 12 15 18 18 18 16 10 4 4 5 3 3 3 3 5 4 11 6 5 4 4 4 12 16 17 22 21 19 18 16 15 15 16 16 16 17 17 19 17 18 17 17 16 15 15 15 16 16 15 15 15 14 14 14 14 14 14 14 13 13 13 12 14 14 13 13 13 12 12 12 12 11 11 11 10 10 10 10 9 9 9 8 8
8 8 6 5 7 6 5 3 5 8 8 11 13 13 14 17 18 19 13 4 5 5 10 7 4 4 7 8 9 11 4 9 12 10 9 11 15 13 20 21 21 20 17 16 15 15 15 15 17 16 17 19 18 17 17 17 16 16 15 16 16 15 15 15 15 15 14 14 14 14 14 14 14 13 13 12 11 13 12 13 13 12 12 12 12 11 11 10 10 9 9 9 9 8 8 7 6
9 8 5 6 7 7 7 6 9 8 12 14 11 12 13 17 18 17 7 7 4 10 6 10 11 6 10 12 11 3 6 12 13 14 10 15 14 13 19 20 19 19 19 15 15 14 13 15 17 17 17 18 19 18 18 18 17 16 16 16 16 16 15 16 15 15 15 14 14 14 14 14 14 13 13 12 12 11 11 13 13 12 12 12 11 11 10 9 9 8 8 8 8 8 8 7 5
8 8 8 5 4 5 7 6 10 11 13 13 13 15 18 17 14 3 1 5 6 6 3 7 8 11 7 8 8 12 9 9 12 14 10 10 10 15 18 20 19 16 15 14 15 14 12 16 18 18 18 19 18 18 18 17 17 17 17 16 16 16 16 16 15 15 14 14 13 13 14 14 14 13 13 12 11 10 10 12 13 12 12 12 11 11 10 9 8 8 8 8 8 8 7 6 5
8 7 8 7 4 5 7 9 11 11 16 12 13 11 21 21 23 5 2 10 5 6 10 4 8 7 16 10 3 7 8 7 7 8 8 9 14 15 18 19 17 16 15 16 15 14 14 20 17 17 18 19 18 18 18 18 18 17 17 17 17 17 16 16 16 15 15 14 14 14 14 14 13 13 13 12 11 9 10 12 12 12 12 11 11 10 9 8 7 7 7 8 8 8 7 6 5
8 8 7 6 6 6 8 10 12 15 14 12 15 11 15 21 19 13 8 9 13 3 3 12 4 5 8 8 6 6 4 5 7 6 8 9 17 20 19 15 16 16 16 15 14 13 15 20 19 17 17 18 18 19 18 18 18 17 17 18 18 17 16 16 16 15 14 14 14 14 14 14 13 13 13 12 11 10 11 12 12 11 12 11 11 11 9 8 7 7 7 7 7 7 7 6 5
6 7 6 7 7 7 10 13 15 15 16 17 15 15 15 17 15 15 14 12 9 7 5 13 10 9 5 2 9 6 7 7 9 8 5 10 18 19 18 15 16 17 17 14 13 14 20 20 19 18 17 17 19 19 18 18 17 17 17 17 18 17 16 16 16 15 15 14 14 14 14 14 13 13 12 12 11 11 10 12 13 11 10 10 11 10 8 8 7 7 7 7 7 7 7 6 5
9 9 5 9 7 7 13 15 16 15 15 18 19 20 18 21 15 9 13 15 0 7 8 16 19 14 14 7 5 4 6 8 12 9 11 10 17 18 16 15 16 17 16 13 13 14 20 19 18 17 17 17 17 19 19 19 17 17 17 17 18 17 16 16 15 15 14 14 14 13 14 14 13 12 12 12 12 11 12 12 12 11 10 9 10 10 8 8 6 6 6 6 6 6 6 6 5
9 9 6 9 11 8 13 16 17 18 17 17 20 20 17 20 18 14 18 14 9 10 3 13 14 10 5 10 7 6 6 6 9 10 9 15 17 16 12 15 16 15 16 13 14 16 16 19 18 17 17 17 17 19 19 19 17 16 16 17 17 15 15 15 15 14 13 13 12 12 14 14 13 12 12 12 12 12 12 12 11 10 9 10 11 10 9 7 5 6 6 6 6 6 7 7 6
9 9 9 8 9 15 15 15 17 17 18 20 21 22 21 15 18 16 18 20 15 10 12 11 13 13 11 11 8 8 6 10 11 9 10 15 14 10 14 14 16 18 15 14 15 15 13 20 20 17 16 16 16 17 17 17 17 16 16 16 15 14 14 13 12 12 12 14 13 12 13 14 13 12 12 12 12 12 12 12 11 11 11 11 11 10 8 6 5 5 6 6 6 7 7 7 7
10 9 9 11 14 16 17 15 17 18 21 19 20 25 25 21 17 18 20 19 19 15 15 13 4 15 11 8 6 6 9 10 12 11 11 14 12 8 12 13 14 14 16 17 15 14 16 15 20 18 16 16 15 15 15 16 16 16 15 14 13 13 12 11 12 13 13 12 13 13 13 15 13 12 12 12 12 11 12 11 12 11 11 11 10 9 7 6 5 5 6 6 6 7 7 7 7
12 12 11 14 15 15 16 16 20 18 21 21 22 22 19 24 21 17 19 19 18 17 14 9 5 18 16 11 7 5 10 11 10 11 8 9 10 14 13 12 14 12 16 17 16 14 16 15 14 17 17 15 15 15 14 15 15 15 14 14 14 13 12 12 12 13 13 12 12 12 13 15 14 12 12 11 11 12 11 11 11 11 11 11 10 8 7 5 5 5 6 6 6 7 8 8 7
13 11 14 14 15 15 16 19 18 20 18 20 21 20 21 25 23 23 21 19 17 19 15 10 9 9 7 10 8 8 10 7 11 10 7 10 10 11 13 13 14 15 14 15 17 17 17 15 13 14 14 16 14 15 14 14 14 13 14 14 13 14 14 13 13 14 14 12 12 12 13 14 14 12 13 12 11 11 11 11 11 10 11 10 9 8 7 5 5 5 6 6 6 7 8 8 7
13 12 12 15 14 17 18 18 17 18 18 18 17 20 17 13 18 22 21 22 21 19 10 12 14 9 16 11 7 8 7 9 11 11 7 9 10 10 14 13 13 14 14 15 16 17 17 14 13 12 13 13 11 12 14 15 14 14 14 14 14 14 14 13 13 14 13 12 13 13 12 14 14 12 12 12 11 10 9 11 11 11 11 10 9 8 6 5 5 6 6 6 6 6 7 7 7
14 11 12 14 15 17 18 17 18 20 17 18 20 20 20 15 20 17 20 21 22 17 15 15 8 7 6 14 8 9 12 14 11 9 6 9 12 8 13 11 12 12 14 15 16 17 17 16 14 12 13 13 12 9 9 12 16 15 15 15 15 15 14 13 14 14 13 13 13 13 12 14 15 14 14 12 12 11 11 12 11 10 11 10 9 8 6 5 5 6 5 5 6 6 6 6 6
12 11 12 14 18 19 15 18 20 20 16 19 17 21 24 27 21 21 15 18 12 15 16 13 10 2 20 15 15 14 15 15 15 12 8 8 9 9 13 13 11 12 12 15 15 15 16 16 15 13 12 12 11 9 10 11 15 17 16 16 16 16 16 15 14 14 14 14 15 14 14 11 13 12 13 11 13 12 12 10 11 10 10 10 10 8 7 5 5 5 5 4 5 5 6 6 6
12 12 15 15 19 21 18 17 18 19 17 20 21 21 20 20 24 20 15 14 20 16 15 17 18 4 9 15 17 18 17 13 11 14 11 3 6 7 6 6 7 8 10 13 13 13 16 16 17 11 13 14 13 11 10 11 12 16 14 16 17 16 16 15 14 15 14 13 12 12 12 8 7 7 9 9 12 9 11 12 12 11 10 10 10 8 6 5 4 5 4 4 4 6 6 5 5
12 15 15 19 17 21 18 20 18 17 19 19 23 22 23 22 17 16 13 16 12 13 19 18 20 4 22 15 20 20 18 15 15 16 12 9 6 9 8 8 8 8 10 11 13 15 15 15 16 15 12 14 13 9 9 8 11 13 11 11 11 12 13 14 11 10 12 10 14 10 7 6 6 6 6 9 8 9 10 13 11 11 10 10 9 7 6 4 3 3 3 4 4 5 8 4 3
15 13 16 19 18 17 16 19 23 19 20 20 18 19 23 23 20 11 15 15 16 15 19 20 20 14 22 19 20 21 20 16 15 15 16 16 11 11 11 8 9 10 10 11 11 14 12 13 16 15 14 13 14 11 10 9 12 10 12 10 9 12 11 11 9 10 9 10 10 9 7 6 7 7 6 8 7 11 9 12 12 10 10 10 9 7 5 4 3 3 4 4 5 6 4 3 4
17 15 18 19 17 17 21 21 23 24 24 25 23 19 20 20 20 14 15 17 17 19 17 21 23 13 20 22 24 22 20 21 16 15 12 6 3 9 9 11 10 9 9 10 12 11 13 12 14 12 15 15 14 10 9 10 9 10 9 9 8 8 8 9 8 9 8 9 8 7 6 7 7 6 11 14 10 8 9 11 12 11 10 10 9 5 5 4 4 5 5 5 5 4 4 5 5
11 17 17 17 17 19 22 25 22 22 28 26 21 18 21 21 20 18 18 17 16 15 21 21 21 15 19 18 18 21 21 19 17 15 16 16 8 12 3 10 9 9 9 9 10 11 14 14 14 13 14 13 13 9 10 10 9 8 9 9 9 8 8 8 7 7 7 7 8 7 8 6 6 7 6 5 4 7 8 7 6 5 5 5 8 4 4 5 4 5 4 4 4 5 6 6 3
12 18 20 22 21 22 19 19 21 20 22 25 22 24 23 17 16 21 23 20 13 15 19 17 18 14 19 17 16 16 16 17 16 14 15 18 18 13 12 7 8 9 9 10 11 12 13 15 15 13 14 13 13 10 11 11 11 8 9 9 9 9 8 8 8 8 8 9 7 8 7 7 6 5 5 5 5 7 8 7 6 5 6 6 7 5 5 4 5 5 5 5 5 4 7 6 7
15 17 20 19 20 21 19 21 20 21 22 23 23 25 17 17 21 21 22 22 17 14 17 20 18 13 20 19 17 15 14 15 17 16 13 13 11 8 8 8 9 9 9 9 10 10 12 13 13 14 14 13 13 12 11 11 10 9 8 9 9 9 9 8 8 8 9 9 9 9 7 6 7 7 7 7 5 6 7 7 7 6 5 5 7 6 5 5 6 5 5 5 6 7 9 5 4
17 14 15 21 21 21 18 20 23 24 23 21 22 18 16 21 24 17 22 21 22 18 16 21 18 11 18 18 19 19 17 15 14 17 16 13 10 11 9 8 8 7 7 10 10 10 11 15 13 14 13 13 12 13 11 12 10 10 9 10 10 10 10 8 8 8 9 9 8 6 7 5 5 8 7 7 5 5 6 7 7 6 6 6 7 7 6 5 6 6 5 7 8 8 8 4 4
16 16 18 19 18 19 22 22 21 19 27 22 12 10 17 18 20 19 24 23 21 18 19 21 18 10 14 13 15 22 19 17 17 16 16 17 16 11 8 8 9 9 11 10 10 11 12 13 13 16 14 14 11 12 12 11 11 10 10 10 8 10 8 9 9 8 8 9 7 8 5 5 4 4 7 6 5 6 7 6 6 7 7 6 7 7 6 6 6 7 6 6 7 5 1 4 7
12 16 15 13 13 15 16 16 18 18 18 17 19 15 16 20 21 24 24 25 23 19 20 23 16 11 13 17 14 15 16 16 16 15 12 10 18 16 11 9 11 10 10 11 11 9 11 14 13 15 14 14 11 12 11 11 11 11 10 10 7 10 7 8 7 7 8 7 6 9 7 7 6 5 6 6 6 7 6 8 8 7 8 6 7 7 7 6 6 6 6 5 3 4 4 3 6
13 13 13 13 13 14 14 17 18 19 20 19 15 10 15 16 15 12 18 22 26 24 21 20 18 11 7 13 17 17 20 17 17 13 11 11 16 16 13 11 13 12 9 11 12 10 9 15 13 13 15 13 12 11 11 10 11 10 11 10 8 9 8 7 7 8 7 7 6 8 8 7 8 6 7 6 5 6 4 8 7 7 8 7 7 7 6 5 5 6 3 4 4 3 2 4 4
15 16 17 17 15 15 17 18 18 15 13 13 13 13 14 17 17 19 17 16 22 20 17 18 19 12 8 11 14 14 19 20 17 16 17 14 12 15 15 11 12 11 11 12 10 10 10 12 13 12 13 11 11 11 11 10 10 9 10 10 9 10 7 7 7 7 7 8 7 5 7 5 4 4 7 6 3 3 3 2 4 2 3 4 4 6 5 5 4 4 3 4 0 3 4 3 4
13 13 15 16 16 15 17 19 19 19 14 12 12 16 17 16 19 19 18 21 19 13 16 15 8 5 3 12 10 3 1 10 14 16 14 13 13 13 17 12 13 12 9 11 11 11 12 12 11 12 13 11 11 10 8 9 9 8 10 8 7 9 7 6 7 5 8 6 7 7 6 5 4 3 6 6 3 4 3 3 3 2 3 3 3 5 4 5 4 3 5 2 3 3 4 4 5
12 13 12 14 14 15 17 17 19 22 17 15 14 16 15 18 22 23 23 23 17 14 17 18 11 10 3 9 7 8 11 3 5 11 16 15 16 14 15 12 12 10 10 10 12 12 11 9 8 8 11 12 12 9 7 8 8 7 9 6 8 7 6 7 6 4 7 6 8 6 6 5 5 2 5 6 4 5 3 3 3 3 4 3 3 4 3 3 3 3 3 4 3 4 2 4 5
11 12 11 11 11 12 13 14 18 22 16 19 18 18 16 19 23 24 25 23 15 15 19 17 12 13 15 5 10 10 8 10 1 3 7 10 11 13 18 19 18 14 11 12 15 16 13 10 9 8 11 11 12 11 10 8 8 7 8 7 9 7 7 6 6 5 6 6 8 7 6 5 5 4 5 4 4 5 4 5 5 3 3 4 2 4 2 2 3 3 4 3 2 2 3 5 3
10 10 11 11 13 12 16 17 17 19 14 21 20 18 18 19 21 22 22 19 17 20 21 18 15 15 16 12 8 6 8 9 12 5 2 4 11 10 6 3 12 13 15 14 14 16 15 12 12 9 12 13 11 9 9 7 8 8 7 7 8 8 7 5 6 6 5 7 7 7 6 6 5 5 6 5 4 4 5 6 5 4 4 3 4 3 2 5 3 4 3 3 4 3 4 3 3
11 12 11 12 11 11 13 15 17 19 15 18 23 16 16 18 21 21 16 16 20 25 23 21 20 17 17 12 9 12 12 13 12 13 12 7 4 12 12 14 15 13 14 14 15 17 16 16 13 11 13 13 11 10 10 7 8 7 7 7 9 7 8 5 6 5 5 7 6 7 7 6 5 5 6 6 5 4 5 5 4 5 5 4 4 4 3 4 5 3 4 3 4 3 4 5 5
10 11 12 13 15 13 13 13 16 15 18 16 20 19 19 15 15 15 16 17 17 21 25 25 24 21 19 14 14 13 11 15 16 17 16 12 10 11 10 12 15 13 13 14 16 17 17 15 13 11 12 11 10 10 9 7 8 6 6 7 7 7 7 6 6 6 6 6 7 7 7 6 7 6 7 6 7 4 6 5 6 5 6 5 5 5 4 4 5 3 4 3 3 4 2 6 5
10 9 10 12 14 16 18 12 8 15 16 19 19 20 19 17 19 19 19 15 23 23 20 23 24 22 20 16 17 16 13 15 15 14 15 13 13 10 9 11 9 6 8 12 16 13 13 12 12 11 12 11 10 10 10 7 8 7 6 7 7 7 7 6 7 7 6 7 7 9 10 7 8 7 7 8 7 5 5 6 5 7 5 4 6 5 3 4 5 2 4 2 2 2 4 5 5
16 15 13 14 12 12 13 14 15 17 17 16 17 17 19 20 18 16 17 22 18 23 22 15 18 19 18 19 18 14 15 17 15 13 13 10 10 11 8 8 6 5 4 6 13 14 13 14 11 11 12 11 9 10 10 8 8 8 7 8 8 8 7 7 7 7 7 8 8 8 9 7 8 6 8 8 7 5 6 5 7 6 5 5 6 6 3 5 5 4 4 3 2 3 3 6 6
14 13 13 14 14 15 16 19 18 19 18 18 18 20 19 17 17 19 19 18 21 18 22 20 13 18 18 19 20 16 17 16 11 14 12 13 14 10 10 10 11 7 5 8 10 13 13 15 14 14 13 12 11 11 11 10 10 8 6 9 9 9 8 7 7 7 7 7 9 9 10 8 8 7 8 8 7 6 5 7 7 6 4 5 5 5 3 6 6 5 3 3 2 3 2 4 7
14 13 14 14 14 14 15 17 18 15 15 15 18 18 18 18 17 19 21 21 22 21 19 19 24 20 17 20 21 22 16 10 9 12 13 11 14 15 13 11 10 13 8 10 10 10 10 13 15 14 12 13 12 11 11 9 9 8 7 8 8 9 8 8 8 7 7 6 7 9 9 9 8 8 7 8 6 5 5 7 7 6 6 5 5 3 7 7 7 5 3 3 1 2 2 4 8
11 11 11 13 12 13 16 17 17 15 14 15 18 20 15 15 19 20 18 17 13 18 19 19 20 22 16 18 21 19 16 11 12 12 14 12 11 15 14 14 13 14 14 14 14 13 12 12 12 13 12 13 11 12 11 10 8 8 7 6 8 8 6 5 6 7 7 7 8 7 10 8 8 8 8 9 7 5 6 6 7 7 6 6 6 5 6 5 5 6 4 4 4 1 1 2 8
10 11 11 12 11 11 11 13 15 14 12 13 17 19 16 18 20 20 16 19 18 18 18 21 21 21 21 18 18 14 14 11 12 13 15 13 14 12 9 12 15 13 12 13 12 12 10 11 12 14 13 12 11 12 12 10 10 8 6 6 6 8 6 4 4 5 6 7 10 8 9 8 9 9 9 9 7 6 6 7 7 6 6 6 6 5 3 7 5 5 5 4 4 5 3 3 4
12 13 13 12 12 12 13 12 16 17 16 15 17 17 16 15 16 16 16 19 20 15 18 19 22 21 18 19 15 8 9 13 11 14 18 16 15 15 13 12 15 15 14 15 15 14 10 14 13 14 14 14 11 12 13 11 10 9 7 6 6 6 5 6 6 8 8 6 8 9 10 9 10 9 9 9 8 8 7 7 7 7 7 7 9 6 4 4 6 4 5 5 6 6 7 5 5
12 14 14 14 14 14 14 16 16 12 13 12 14 11 14 16 20 18 15 16 16 21 22 23 21 20 18 14 14 14 13 9 7 7 12 18 17 14 14 17 16 15 16 14 15 16 14 14 13 12 12 12 12 12 12 11 10 9 10 10 10 9 10 10 11 11 10 8 9 8 10 10 10 8 9 9 8 8 8 8 7 8 8 7 10 9 6 5 6 7 6 6 7 5 6 4 4
12 10 11 14 17 16 16 15 13 11 13 10 12 14 12 10 16 18 19 19 18 20 23 23 22 16 17 14 13 12 8 7 10 11 6 15 14 16 15 15 15 15 14 13 13 14 14 14 13 13 12 13 13 13 12 11 11 9 11 11 10 9 9 7 7 7 8 7 7 8 9 9 9 9 9 9 9 8 8 8 8 7 7 7 8 11 9 8 6 8 7 6 8 7 6 7 8
13 11 14 14 15 17 15 15 14 12 12 16 18 13 13 13 13 16 18 21 23 23 23 23 20 20 17 11 9 11 10 7 9 13 13 11 16 17 18 17 16 16 15 13 13 13 16 16 16 14 12 12 12 14 14 13 12 10 10 11 10 9 8 8 9 9 8 8 9 9 9 9 9 9 8 9 9 9 8 8 7 7 7 7 8 9 12 9 7 5 8 8 7 5 7 7 7
11 12 13 13 14 12 12 12 12 12 12 14 13 17 15 13 13 17 19 19 22 23 23 20 22 22 18 17 15 11 10 9 12 10 10 12 18 19 18 18 16 18 16 15 15 15 14 15 15 15 14 15 14 16 16 15 13 11 10 9 10 8 8 8 7 8 9 9 10 9 9 9 9 9 9 8 9 9 8 8 8 7 7 7 7 7 8 12 12 8 7 6 7 8 6 7 6
12 14 15 14 14 16 15 12 12 11 12 15 17 15 13 13 13 14 18 20 18 20 23 22 20 22 23 19 16 16 13 9 13 14 11 11 12 19 19 19 18 15 15 15 15 14 14 15 16 16 15 14 14 17 16 16 13 11 10 11 11 9 7 8 8 9 9 9 10 11 9 9 9 8 8 9 9 10 9 8 8 8 8 7 7 8 8 9 12 12 11 9 8 8 6 5 7
14 17 17 15 14 12 12 11 12 11 12 19 20 19 15 13 12 14 14 14 16 15 17 20 22 19 21 20 20 13 10 11 13 13 8 11 12 16 19 20 17 16 14 16 14 14 13 14 16 18 15 13 14 17 17 17 15 12 10 11 12 11 10 10 10 11 10 10 10 11 10 8 9 8 8 8 9 10 9 8 8 7 7 7 7 8 8 8 7 9 12 11 11 10 7 8 5
14 10 11 11 12 12 12 11 11 11 15 18 16 18 19 16 12 16 16 16 21 20 17 20 24 24 20 17 19 18 15 14 16 15 14 10 9 15 18 19 19 17 16 16 14 14 13 14 15 19 16 15 14 15 16 16 14 12 10 11 12 12 11 10 12 12 12 13 10 12 10 8 8 8 8 7 9 9 9 8 8 8 7 6 7 6 7 7 8 6 7 8 8 8 7 6 6
10 11 11 13 11 6 10 9 11 13 15 11 9 13 14 16 16 17 19 19 17 19 18 17 18 23 22 20 20 20 18 20 18 15 14 13 10 10 17 17 16 17 17 17 17 15 14 14 17 19 20 17 16 15 15 15 13 12 11 12 11 11 11 10 11 11 11 11 10 11 12 11 9 9 9 9 9 10 9 8 8 7 7 7 6 6 6 7 7 6 6 7 8 9 7 7 6
9 10 9 10 10 9 11 10 7 11 14 17 15 13 14 13 14 18 21 22 21 18 19 21 21 15 18 20 18 17 17 19 18 15 16 15 14 10 15 15 14 13 15 17 17 16 15 13 17 19 18 16 15 15 15 13 14 12 12 12 11 11 11 11 11 11 11 11 9 11 12 11 10 11 10 10 10 10 9 8 9 8 8 7 7 6 6 6 7 6 7 7 7 8 9 8 7
9 5 8 10 10 7 7 8 10 11 11 11 14 12 11 13 10 13 18 20 21 20 19 17 18 18 11 13 17 18 16 16 15 15 16 17 17 14 11 17 18 17 19 18 17 16 16 14 16 18 16 16 15 15 13 14 13 13 12 12 12 11 12 10 11 10 10 11 9 11 11 10 10 10 11 9 10 10 9 8 9 8 8 8 7 6 6 6 7 6 7 7 6 6 8 7 6
12 8 9 12 12 4 9 9 11 10 6 12 10 8 8 10 7 9 11 16 17 16 21 22 19 13 15 12 11 10 14 14 15 16 16 17 17 16 12 13 17 18 21 17 19 17 16 15 16 17 17 16 16 17 15 14 13 12 13 13 13 13 11 10 10 9 10 10 9 11 11 11 10 10 9 9 10 10 10 9 9 9 8 8 8 7 7 6 7 7 6 6 6 5 6 6 5
2 6 10 10 7 9 4 10 14 12 10 16 9 9 12 11 15 14 12 16 20 19 17 21 22 18 10 10 11 12 10 13 12 13 12 12 13 13 14 12 13 16 15 18 18 18 19 16 15 17 17 15 17 19 17 14 12 12 13 13 13 13 13 12 11 11 12 10 10 9 10 11 10 9 9 10 10 10 9 9 9 8 8 7 8 7 8 7 7 7 6 6 6 6 7 8 7
9 10 8 9 11 10 4 7 6 7 10 10 8 12 11 11 10 9 14 17 19 19 21 17 21 20 16 8 6 10 9 10 13 12 9 6 6 7 8 11 18 19 18 17 18 17 17 16 17 18 16 18 15 17 18 17 16 14 13 14 14 14 13 13 11 12 12 11 10 9 9 10 10 10 9 9 10 11 10 10 9 8 8 7 8 8 8 8 7 6 6 7 6 4 5 4 4
13 10 7 7 3 4 6 3 10 8 10 8 10 14 14 13 13 10 12 11 11 15 18 18 18 21 17 11 9 11 11 6 13 15 12 10 9 11 10 7 19 21 20 17 17 17 16 15 17 17 17 17 16 14 14 14 15 13 13 15 15 14 14 13 12 12 12 13 12 10 11 10 10 10 9 10 10 11 10 9 9 8 8 8 8 8 8 8 8 7 6 6 6 5 4 4 4
7 6 6 3 6 9 10 5 6 5 10 8 14 11 10 10 10 13 13 11 11 13 15 16 18 16 14 13 12 13 12 6 3 7 10 12 13 13 15 13 15 18 19 18 17 16 17 17 16 16 15 13 13 16 15 15 14 13 14 13 14 14 14 14 14 13 13 14 12 11 11 11 11 10 9 11 10 10 10 10 9 9 8 8 8 7 8 7 7 7 7 6 6 7 6 7 7
6 1 7 4 5 7 7 7 10 7 9 9 9 9 9 10 7 9 11 11 11 12 12 13 14 15 12 10 11 12 14 9 5 5 6 11 9 6 7 12 14 18 16 16 16 17 16 16 15 17 17 16 15 13 15 14 13 14 15 16 15 15 15 14 14 13 14 13 12 11 11 9 10 10 9 11 11 11 11 10 11 10 9 8 8 7 7 6 6 6 6 6 7 8 8 5 4
3 4 8 5 4 5 5 10 8 10 8 9 5 11 10 8 4 11 9 9 9 10 12 13 14 13 14 13 12 16 14 11 8 9 7 3 6 9 10 8 9 15 16 16 17 16 17 15 16 15 15 15 15 15 15 15 14 15 17 16 16 15 15 14 14 14 13 14 12 11 10 10 11 10 9 11 11 10 10 11 11 10 10 10 9 9 8 7 8 7 7 6 6 7 6 5 6
Wind_Direction
291 273 248 230 229 251 265 210 258 192 220 242 255 254 262 250 252 263 253 243 243 135 87 82 163 176 268 145 181 203 133 202 351 125 93 110 137 153 132 119 119 120 125 130 130 135 136 138 140 140 144 143 143 145 137 132 128 128 126 124 122 123 123 125 125 126 128 128 128 127 126 124 122 118 117 117 117 115 114 113 112 110 109 109 106 103 98 93 88 86 84 80 78 74 74 76 73
295 304 253 242 242 252 228 207 255 271 239 249 248 250 255 264 261 248 275 20 359 23 113 86 22 287 253 175 204 115 102 89 79 81 106 123 138 138 119 121 124 126 127 129 133 137 139 142 140 141 145 145 145 144 140 136 134 132 128 127 125 126 128 130 129 129 131 132 130 130 128 128 125 121 118 118 117 119 124 120 116 113 111 112 111 104 97 93 86 83 81 78 75 74 73 73 74
307 305 278 226 248 233 293 239 252 240 251 251 256 246 239 251 258 271 86 254 310 282 151 161 179 163 256 249 106 308 61 93 95 105 107 137 143 120 127 123 122 125 128 132 135 138 139 144 142 142 144 145 147 146 146 143 140 136 134 132 131 133 134 135 133 134 135 134 133 133 131 129 127 125 123 123 126 127 130 124 119 118 118 116 113 106 99 90 85 80 78 75 72 74 71 70 73
290 278 273 252 281 256 249 251 246 252 248 248 248 257 271 274 270 42 176 66 298 279 252 228 199 165 155 354 24 108 51 44 82 112 130 151 119 130 129 122 122 124 127 135 139 137 140 144 143 143 145 146 147 147 147 146 146 146 142 137 137 140 139 139 137 139 137 137 135 134 134 130 129 127 129 130 132 136 129 124 122 123 121 119 116 109 98 89 85 79 74 72 69 67 67 66 64
268 265 254 265 257 257 248 243 252 241 244 243 250 241 263 269 281 108 349 57 312 265 236 254 188 137 113 181 63 59 101 99 88 111 116 122 132 128 125 125 124 128 133 137 139 137 138 144 143 145 146 148 147 147 147 149 149 148 145 142 140 141 142 142 141 140 140 139 138 136 134 135 131 130 132 134 138 138 130 124 125 127 125 123 117 106 96 86 78 74 68 67 68 65 61 61 55
246 251 238 246 244 331 287 256 238 244 254 251 251 245 243 258 265 269 208 140 247 256 7 88 28 348 50 6 51 92 136 87 139 124 127 148 132 129 124 125 128 129 136 139 138 135 142 145 144 145 147 148 148 149 150 151 149 148 146 143 142 142 145 144 143 141 142 142 140 140 137 138 135 133 134 137 140 135 128 130 127 131 130 125 122 107 100 90 83 73 63 61 65 64 62 56 58
239 227 224 221 251 249 258 256 251 248 242 251 259 258 247 246 254 286 298 277 218 254 230 113 95 43 46 214 95 75 59 148 151 134 145 144 130 130 132 132 129 131 138 138 138 133 142 144 145 146 147 150 150 149 151 150 149 148 147 145 145 146 147 147 146 145 144 144 143 143 140 139 139 137 138 140 141 136 130 125 130 133 129 128 125 111 104 95 86 71 61 55 53 57 57 53 49
253 270 221 223 232 218 232 245 254 248 243 245 247 249 248 257 249 254 255 268 222 218 205 148 138 146 194 221 108 77 83 72 132 144 129 150 128 131 136 132 128 133 137 138 131 131 136 141 143 146 147 148 151 150 151 150 150 148 147 147 147 148 149 149 147 146 146 146 145 145 142 140 142 140 140 142 142 139 134 131 129 130 133 134 125 119 107 90 81 69 62 58 53 56 56 54 51
228 232 258 268 240 224 239 240 245 244 256 252 256 262 251 249 251 271 281 265 242 243 290 142 143 150 159 132 120 151 116 107 109 125 148 148 136 139 138 133 132 134 136 135 117 126 138 141 142 145 147 148 151 151 151 149 148 147 148 148 148 148 150 151 148 147 146 146 147 144 144 144 142 143 143 143 142 142 139 130 119 120 121 122 122 113 97 89 85 74 64 55 50 48 52 52 51
232 212 219 231 245 239 239 240 242 241 244 243 256 261 264 253 243 223 249 268 259 258 243 220 193 122 147 117 147 155 133 137 130 129 156 138 133 139 128 127 134 134 132 109 121 130 137 141 140 143 147 148 153 152 150 149 149 149 150 150 146 148 149 148 143 139 144 147 146 144 146 144 142 144 143 144 145 144 137 129 122 116 120 122 117 111 105 99 88 75 67 56 49 49 48 46 47
230 208 235 228 227 240 237 239 242 244 244 247 241 248 259 264 251 230 229 258 263 229 251 267 149 131 157 145 110 111 118 134 138 138 152 136 131 133 119 128 128 131 118 120 124 128 137 140 138 142 145 147 150 150 148 148 148 148 148 145 144 145 143 144 139 137 141 143 143 144 143 143 142 143 145 147 146 142 136 129 122 117 117 119 117 115 112 109 95 85 72 60 54 52 50 54 50
237 224 200 233 234 233 237 241 243 244 243 238 242 238 240 250 257 243 239 235 247 245 227 190 191 149 152 129 105 116 122 124 121 131 150 125 141 131 120 124 130 122 120 127 121 127 140 141 141 142 140 146 148 146 145 147 145 144 144 142 143 145 144 140 140 140 148 147 138 134 141 145 143 146 144 144 143 145 143 135 125 120 121 131 133 126 121 122 107 85 76 68 60 57 60 58 59
238 228 226 227 233 239 242 242 240 244 245 235 245 233 230 234 233 236 247 263 260 251 232 243 261 250 121 108 114 130 122 121 128 129 141 128 140 130 126 125 119 116 123 125 130 138 140 144 141 146 141 144 144 144 144 141 140 141 140 143 144 145 143 142 146 150 152 144 142 139 140 145 143 145 143 145 147 147 147 142 131 129 132 135 139 132 134 133 113 91 84 77 68 68 67 63 66
227 230 239 241 232 237 238 242 242 238 235 244 244 256 250 248 232 233 226 235 250 258 254 224 230 91 109 112 121 136 130 130 112 113 114 132 141 135 126 124 115 123 130 135 136 139 142 145 146 145 147 152 145 142 140 138 141 143 144 144 146 145 144 148 150 151 147 146 146 144 144 146 143 144 146 149 149 150 145 134 136 140 142 145 144 141 144 139 116 98 89 86 83 80 79 77 75
233 226 244 250 248 238 230 238 234 235 245 231 233 247 261 259 276 254 230 225 229 248 260 265 296 145 117 133 149 161 146 134 115 97 112 139 133 128 126 118 123 135 133 136 137 142 146 144 146 144 156 161 151 147 147 143 147 150 148 148 148 146 146 146 150 148 147 148 150 150 147 148 146 147 151 151 149 149 141 139 141 145 150 152 147 146 151 143 119 109 101 92 95 91 91 92 90
233 234 236 242 240 246 241 236 235 242 240 238 240 227 235 255 250 262 249 224 234 223 242 259 240 289 168 153 157 145 136 139 140 124 124 143 145 128 119 127 140 145 140 139 143 147 149 148 149 156 157 160 155 153 147 151 155 152 152 150 148 148 148 147 144 150 150 151 152 155 151 147 149 148 153 152 151 152 149 147 145 148 151 149 153 152 156 151 129 118 111 105 107 109 108 106 101
233 236 238 234 239 234 238 248 239 231 242 247 241 240 240 233 239 249 266 245 220 232 239 247 255 178 213 133 143 143 139 132 132 129 119 140 156 111 124 139 151 148 143 142 145 150 150 149 155 156 161 163 159 150 147 150 155 154 152 150 151 150 149 148 150 149 148 153 152 153 155 156 156 149 157 160 158 158 162 149 150 149 152 153 158 156 158 156 144 127 132 131 131 134 129 117 106
241 230 232 237 239 237 234 241 247 260 251 234 240 237 245 248 224 228 239 244 217 229 247 248 239 195 103 130 130 136 137 144 138 135 143 166 174 144 154 162 160 157 152 144 148 152 153 154 153 162 162 161 162 146 146 154 154 157 152 152 152 154 154 155 154 152 150 151 153 154 160 164 169 155 172 161 164 165 162 154 152 154 156 159 163 161 156 163 161 155 152 168 173 167 159 152 132
231 240 238 238 234 245 238 242 252 258 255 259 252 243 247 250 249 222 236 224 210 214 243 251 240 154 124 131 135 138 143 146 146 146 161 170 163 162 163 166 163 158 167 147 153 156 157 153 156 162 162 165 156 150 150 148 156 159 154 154 153 155 161 161 164 160 154 156 156 164 167 171 174 166 175 170 171 169 157 159 156 160 159 160 170 166 165 177 196 194 201 210 214 202 198 201 153
229 239 239 240 243 248 246 236 244 257 264 263 258 254 248 255 252 253 241 232 208 220 225 235 240 165 132 142 141 141 147 148 159 156 136 108 302 172 174 160 161 162 165 154 152 159 154 156 158 159 160 166 153 158 148 147 160 161 154 156 152 156 161 169 171 166 166 164 164 172 176 181 171 157 183 183 173 157 151 164 163 162 166 164 172 173 182 205 218 229 235 230 240 212 213 232 156
223 235 239 247 242 242 244 252 239 244 259 262 263 282 266 251 251 253 255 249 220 217 232 226 228 178 147 145 148 146 145 159 151 152 152 146 151 278 214 166 160 166 162 154 155 160 161 153 155 157 162 165 156 154 140 151 165 160 160 158 159 161 166 172 169 174 165 171 170 177 182 182 166 171 174 180 154 155 159 162 163 170 165 178 174 195 177 196 201 213 211 218 237 218 206 223 179
241 237 240 245 249 255 257 252 246 244 252 265 266 266 264 273 284 267 252 253 232 209 243 236 230 199 151 153 155 145 151 150 154 149 149 152 164 196 226 180 148 164 167 158 164 162 159 154 154 156 163 164 162 152 151 155 167 167 166 160 163 161 174 168 169 181 162 172 177 183 193 172 171 156 148 181 183 157 170 162 174 181 185 181 174 207 187 193 186 218 202 201 226 232 222 206 190
235 234 255 252 245 251 258 265 265 256 243 239 254 255 273 281 265 258 259 247 249 224 214 247 229 207 152 160 155 149 152 159 150 155 156 154 164 172 205 168 152 168 168 158 160 159 150 149 157 161 164 163 164 156 153 158 172 170 169 158 166 166 179 171 171 188 164 173 183 185 163 179 174 148 164 187 192 172 169 169 180 184 189 183 169 208 195 191 182 215 204 206 211 226 241 196 124
241 260 238 238 251 259 259 257 261 265 267 255 247 261 268 262 263 268 267 259 247 241 220 234 235 201 186 163 153 154 155 157 162 156 160 151 160 183 184 163 157 162 171 151 163 158 156 157 158 169 163 161 168 159 154 163 169 171 170 161 170 173 173 182 170 186 161 175 191 165 149 166 177 151 168 178 196 178 178 178 176 178 201 188 170 205 202 188 184 218 212 205 215 221 223 131 135
250 234 245 264 266 252 244 249 252 261 270 270 296 315 286 261 256 263 258 259 255 228 231 238 234 194 209 175 170 153 158 162 167 165 164 159 159 185 179 154 161 170 176 152 162 161 162 157 165 174 162 166 169 155 157 163 172 170 169 167 176 173 181 183 176 173 163 177 180 145 155 149 191 160 154 182 195 200 178 168 182 181 194 196 168 198 213 180 187 215 220 206 216 235 186 102 97
262 271 282 287 281 285 288 286 268 252 255 251 251 245 264 255 253 254 258 262 265 254 221 241 239 221 199 188 166 159 161 162 162 163 179 166 151 161 163 174 166 174 178 151 155 167 164 162 170 176 162 166 170 155 163 165 175 170 168 169 181 168 190 180 164 164 164 172 173 150 162 165 195 159 167 181 203 196 173 174 189 181 186 201 168 191 222 173 186 213 218 214 203 221 108 126 112
299 288 275 275 281 285 280 267 263 268 266 263 270 278 276 280 273 261 251 253 252 249 237 232 243 240 185 198 164 168 160 162 165 164 170 166 156 152 166 177 174 171 168 151 159 165 167 165 167 177 163 164 171 165 167 165 173 172 166 170 175 175 188 168 164 162 166 167 183 160 167 175 190 162 172 183 216 183 193 175 191 184 178 202 165 190 221 170 188 221 168 210 249 129 113 93 106
283 286 288 276 272 280 287 289 289 296 289 294 274 261 265 265 264 252 245 264 265 262 290 250 233 234 164 176 176 174 169 167 164 159 165 166 169 155 164 172 174 162 159 161 163 162 163 168 167 170 164 171 171 171 165 167 168 172 168 169 170 177 174 155 176 158 169 161 175 163 159 185 191 158 157 183 191 170 216 182 176 152 161 202 165 168 219 163 187 222 153 221 164 93 96 118 96
274 277 273 273 270 262 254 258 261 260 256 270 290 279 253 246 250 259 261 260 245 270 281 287 272 282 98 192 162 134 227 177 161 163 163 166 163 157 163 171 170 159 156 161 161 164 162 167 174 178 161 167 172 174 168 163 165 168 167 169 165 170 162 170 168 172 164 151 168 164 152 186 186 159 150 168 180 182 194 207 152 194 170 224 148 177 197 161 184 211 170 207 102 72 107 78 95
274 273 277 280 272 265 256 250 245 255 256 251 250 254 252 242 244 244 251 253 260 280 265 273 289 294 292 164 163 165 97 32 188 171 166 165 162 163 162 162 162 160 160 164 161 164 162 165 172 179 159 163 169 169 182 159 167 165 161 170 153 166 165 174 166 164 155 147 157 155 162 179 180 161 146 175 175 177 182 178 192 180 190 171 178 172 149 158 168 189 140 77 76 87 95 97 110
263 264 253 263 270 263 251 235 235 237 239 244 236 252 250 248 242 242 244 251 263 259 267 271 279 286 278 160 178 163 144 130 166 247 181 159 159 168 167 163 165 164 165 170 167 161 161 164 168 181 164 166 167 175 180 160 162 167 170 163 158 172 168 176 155 158 160 142 151 164 172 171 178 172 156 174 189 171 174 167 211 189 171 171 141 128 127 148 207 117 99 114 107 128 126 131 174
256 253 245 247 251 258 257 257 242 235 224 225 233 240 245 245 247 246 241 241 249 254 256 259 258 255 258 250 163 206 162 153 162 177 260 192 162 123 96 145 158 163 170 173 159 156 163 165 172 175 166 170 177 163 166 158 164 175 177 160 161 167 163 168 149 163 162 145 158 160 171 174 165 183 157 179 201 179 171 170 198 182 172 143 123 142 176 196 127 113 128 145 133 187 129 154 92
244 242 262 265 264 267 262 229 237 250 252 221 218 242 239 240 246 251 250 236 229 236 246 251 252 253 247 247 223 181 170 159 174 166 172 182 162 146 165 177 177 177 172 168 152 158 160 165 167 173 170 171 176 155 163 158 173 183 174 165 160 167 153 160 156 158 162 147 154 163 170 173 164 193 161 177 205 197 156 186 177 188 136 133 143 168 214 160 125 145 155 142 183 141 163 129 95
266 263 254 245 246 252 250 273 278 253 229 244 225 225 238 255 256 242 226 248 250 232 226 235 243 245 249 249 246 226 192 180 179 175 170 169 165 160 167 174 173 173 167 166 155 161 163 160 167 170 167 170 170 158 163 164 178 183 173 174 151 156 159 166 164 166 158 151 158 165 168 170 168 199 163 171 208 188 175 169 188 144 137 156 145 169 214 140 132 151 138 154 195 142 139 113 117
280 282 288 295 298 302 306 305 287 263 253 248 240 243 242 232 234 253 266 220 233 247 233 225 227 234 231 243 238 229 234 181 186 169 167 164 150 142 157 151 161 173 157 165 155 159 156 157 164 163 166 169 165 161 162 166 178 191 185 162 152 162 168 181 162 170 164 162 179 158 166 170 183 188 165 173 206 194 173 172 161 137 153 160 136 174 216 132 134 147 121 80 49 75 102 129 132
289 288 292 295 293 290 286 287 285 291 307 314 295 253 245 248 259 257 244 262 242 233 248 227 224 230 225 236 237 222 231 222 185 156 153 156 157 143 116 122 128 153 124 180 154 156 157 157 165 160 166 168 165 164 166 167 178 196 183 161 161 169 176 185 166 174 168 168 181 159 165 167 186 171 176 175 205 205 164 164 134 151 165 138 146 181 194 131 130 114 93 111 62 79 84 108 91
269 273 279 280 282 281 280 275 276 284 292 284 282 290 256 255 253 252 248 240 253 249 229 241 226 220 221 226 240 223 226 234 199 160 155 158 151 148 140 150 147 148 155 173 172 165 161 162 163 167 166 167 173 172 171 168 179 187 191 177 168 169 182 180 169 174 177 171 173 157 163 165 183 174 179 176 202 212 165 137 139 160 150 147 144 187 148 107 86 79 99 73 101 103 88 99 106
276 281 279 277 275 278 277 281 290 266 278 277 273 283 275 237 239 248 254 241 231 249 252 231 237 232 214 223 234 228 224 225 211 169 137 142 137 145 146 149 159 156 175 163 168 173 166 165 166 167 163 173 178 177 167 167 179 192 184 175 170 169 182 182 173 172 172 161 172 152 165 161 185 173 179 178 200 201 136 135 147 168 146 159 153 117 80 92 103 111 107 90 39 71 120 143 122
278 272 274 276 268 273 276 282 279 288 282 279 277 267 274 281 278 278 261 269 262 232 244 250 235 234 219 219 228 225 213 216 206 171 148 143 133 141 147 155 163 170 172 165 166 173 174 172 168 169 169 175 176 174 170 170 173 186 190 178 171 165 187 183 181 163 161 159 175 156 161 163 186 172 181 178 194 186 152 145 153 169 153 149 149 116 120 102 111 133 135 136 125 28 111 142 139
275 269 264 262 269 270 287 284 284 270 252 260 261 266 254 246 253 256 259 269 266 268 244 248 252 227 226 225 225 212 206 235 217 168 168 159 149 148 149 158 165 171 171 163 163 172 174 175 176 170 173 175 177 178 169 164 172 176 188 172 163 165 176 182 157 153 166 167 171 161 165 162 184 174 188 179 187 176 164 157 157 156 157 147 127 139 146 138 131 151 154 148 135 142 180 156 154
257 254 259 264 268 274 284 292 294 296 286 295 295 270 255 255 255 247 254 268 273 271 277 274 259 249 210 227 220 192 213 218 232 180 174 178 156 161 162 166 166 169 175 170 168 177 177 176 183 175 171 176 181 178 168 159 166 172 172 164 167 163 176 185 166 175 178 177 160 167 164 169 183 179 187 184 182 171 162 163 160 159 164 155 112 153 196 163 150 160 165 160 167 165 166 163 169
269 261 261 268 276 279 273 274 276 262 273 260 264 275 260 248 250 248 232 231 253 269 268 267 268 232 231 221 197 188 200 235 252 222 183 184 160 160 159 166 170 171 177 172 172 179 171 174 180 176 172 172 177 180 165 157 167 172 173 172 182 187 184 187 185 176 174 182 170 165 161 175 181 183 187 183 175 171 170 173 171 167 170 158 136 159 184 202 166 168 176 181 180 192 159 154 178
269 263 259 259 263 268 279 273 261 270 274 265 237 253 266 259 252 246 244 263 257 257 256 258 261 274 246 231 201 198 193 216 248 249 214 174 154 160 164 167 171 173 175 171 171 174 172 171 176 181 178 175 175 175 166 160 169 184 182 181 187 191 188 188 169 168 176 171 167 169 164 176 184 184 186 185 168 174 175 173 174 170 163 157 148 147 163 184 191 172 175 191 184 182 164 173 192
260 276 277 280 281 280 270 277 287 289 278 279 280 269 259 254 255 268 256 228 242 252 245 245 251 259 274 265 201 184 184 218 247 228 226 167 165 168 168 171 173 176 174 171 171 172 175 174 176 180 177 177 179 172 170 168 174 182 183 181 186 194 190 179 172 175 178 168 171 174 167 177 184 187 184 186 163 169 177 175 175 170 160 165 154 149 159 175 189 192 183 189 179 180 172 178 192
278 281 283 282 282 278 272 269 274 273 278 275 257 250 249 248 251 255 256 247 233 236 244 233 239 247 249 257 254 220 192 208 243 239 213 174 171 170 168 176 175 173 172 172 173 175 176 175 176 180 181 178 175 176 173 172 172 179 185 182 184 195 183 174 179 174 179 170 172 176 175 174 183 184 186 181 161 176 178 178 173 171 169 168 162 157 159 161 162 183 206 191 192 185 190 186 184
265 267 266 265 267 275 275 268 257 256 264 257 253 257 267 260 249 237 244 258 255 231 225 238 230 230 242 251 233 216 207 219 244 240 216 208 179 174 171 172 176 172 172 170 171 172 176 171 176 181 183 185 173 176 176 169 167 176 188 182 185 187 189 171 184 174 180 178 173 177 175 175 181 179 181 184 169 175 182 178 174 175 177 164 167 163 161 160 155 172 197 196 190 181 189 189 190
285 285 284 277 268 263 259 255 257 262 247 248 252 254 258 268 258 254 240 238 252 251 226 219 227 227 223 235 255 255 215 216 239 249 246 213 188 174 165 171 173 169 166 168 170 174 174 174 175 180 187 186 181 177 174 165 169 181 184 178 178 189 194 175 185 179 178 184 176 174 176 179 179 178 174 183 171 177 179 180 178 173 178 168 173 166 170 163 168 166 183 183 173 173 176 182 190
286 282 272 273 265 265 258 254 251 252 252 253 246 250 247 257 249 259 264 246 240 254 251 216 214 222 223 217 224 232 231 230 227 225 242 249 212 179 173 175 170 167 166 169 168 169 179 174 175 181 187 192 183 177 171 166 170 179 180 177 180 191 199 184 191 182 182 183 177 169 175 180 178 174 178 175 175 179 176 181 182 174 180 171 178 171 168 165 166 173 164 162 161 163 171 170 183
257 258 257 258 266 263 257 244 241 235 249 262 256 240 252 248 261 270 265 264 245 234 250 254 231 213 216 218 212 216 217 226 226 213 216 231 238 191 173 169 164 163 169 169 168 172 179 176 175 183 189 191 177 170 168 170 173 177 178 179 185 194 203 188 191 184 184 186 180 168 173 181 175 175 182 182 179 182 176 179 177 176 175 179 178 180 170 158 154 159 166 166 163 156 171 179 185
260 251 253 251 255 251 254 250 253 258 254 256 255 256 256 258 258 253 260 262 264 249 225 234 254 247 206 209 214 210 207 212 216 208 204 213 224 222 182 160 156 165 172 169 169 175 178 182 177 183 190 189 175 167 168 170 178 177 175 178 188 195 204 191 192 187 186 188 184 173 174 177 179 179 180 185 180 180 177 179 175 176 178 179 179 178 170 151 159 156 170 171 173 163 168 186 187
243 283 297 264 258 262 270 259 249 258 282 283 267 246 235 245 239 243 259 264 266 263 261 243 230 242 242 219 212 210 214 208 205 206 201 200 208 217 202 165 174 174 172 173 174 175 179 183 179 182 188 188 171 163 167 175 180 177 176 181 189 195 201 196 192 188 183 187 186 172 174 176 181 180 184 178 178 179 175 179 178 179 175 179 175 178 168 159 158 160 169 177 154 150 152 162 172
264 259 249 258 252 189 241 277 284 284 313 293 266 262 284 259 275 248 247 258 260 266 262 261 259 231 223 227 238 231 208 209 202 204 200 196 197 206 204 159 161 166 168 171 173 174 181 183 183 183 190 192 174 159 164 177 183 182 180 186 192 195 193 196 191 183 182 187 188 175 175 177 178 179 178 178 175 177 176 178 177 179 178 174 174 174 172 167 160 162 166 147 151 161 156 163 170
276 259 237 251 316 320 304 260 264 287 280 263 255 264 266 281 274 261 259 271 274 275 283 274 259 261 258 217 219 234 223 207 206 201 196 191 192 197 201 174 161 165 165 171 173 175 178 181 183 183 188 197 181 161 164 175 185 185 189 191 194 194 190 195 191 182 179 186 188 181 176 175 177 177 175 174 173 176 177 177 175 178 180 175 174 177 174 170 167 168 166 159 169 170 164 177 175
284 259 272 306 309 288 268 281 303 252 255 264 266 263 263 256 265 249 237 237 250 254 255 263 261 249 252 240 228 243 234 223 202 186 181 203 202 211 203 184 168 172 171 173 172 175 177 178 183 181 184 193 183 166 168 170 178 188 190 199 200 195 190 192 194 180 178 184 187 186 175 174 181 176 174 175 171 176 175 175 176 176 179 179 176 181 175 171 170 169 166 161 166 164 158 158 171
241 257 17 306 287 267 234 238 253 274 264 273 264 259 259 256 258 251 250 243 248 247 252 267 259 231 241 232 236 254 257 251 203 176 178 190 201 213 219 203 169 177 178 173 174 173 176 183 183 182 185 189 178 169 167 170 179 185 190 199 199 195 189 189 193 183 176 185 188 188 182 176 176 175 176 172 172 174 174 176 173 177 178 180 182 182 176 172 171 167 158 157 155 162 161 160 174
259 300 254 295 282 262 274 247 280 270 272 286 279 269 265 252 270 278 274 267 251 250 263 265 277 248 228 238 230 245 256 267 226 198 183 190 202 207 205 211 170 174 174 174 173 174 178 183 181 181 184 185 182 171 167 172 182 185 191 197 200 196 192 190 191 184 179 182 188 186 184 175 175 172 173 172 174 173 175 175 174 177 177 182 182 180 179 176 170 171 166 163 162 164 175 183 179
262 240 262 243 236 285 314 297 257 249 265 261 276 286 273 279 286 295 294 278 273 271 257 259 264 263 256 260 240 232 244 242 245 240 207 188 193 211 213 201 183 175 172 170 172 176 181 183 185 182 180 182 184 178 167 176 181 190 193 197 194 192 193 193 193 183 179 180 185 189 185 176 166 172 174 171 177 175 175 176 177 178 179 180 182 176 180 176 173 171 162 177 170 179 187 172 179
182 217 252 241 286 292 278 263 245 254 255 260 279 272 284 291 309 274 268 297 287 263 256 251 251 272 308 305 284 228 224 236 211 218 240 216 188 198 225 226 204 177 178 177 172 179 178 180 183 183 183 184 183 183 179 177 184 189 195 199 192 191 193 194 191 183 179 178 185 185 179 173 172 171 177 175 179 176 176 177 179 177 177 176 184 177 178 181 180 176 171 174 160 180 186 183 191